Погода в Голубинке

Россия / Республика Крым     44°35′39″N   33°55′01″E
темп.,
°C
ветер,
м/с
пор.,
м/с
влажн.,
%
обл.,
%
осадки,
мм/ч
давл.,
гПа
погр.,
м
20 сентября, пн
пн2000:00+13сз22700 0.0 101332
03:00+12сз22650 0.0 101324
06:00+13з01670 0.0 101323
09:00+17зюз37603 0.0 1013989
12:00+19зюз56490 0.0 10141344
15:00+20зюз45481 0.0 10131344
18:00+17сз23605 0.0 101397
21:00+14с227185 0.0 101429
21 сентября, вт
вт2100:00+14вюв22655 0.0 101342
03:00+13с3378100 0.1 1014119
06:00+13св0188100 2.5 101340
09:00+13зсз138899 2.8 1014227
12:00+12ссз229599 0.8 1015292
15:00+13ссз347889 1.1 1016544
18:00+11ссз458549 0.1 1017474
21:00+8ссз457886 0.1 1019462
22 сентября, ср
ср2200:00+6с45849 0.0 1019266
03:00+5с3384100 0.0 101976
06:00+6с238297 0.0 1018129
09:00+8с227694 0.0 1018198
12:00+11зсз236196 0.0 1016932
15:00+9с227163 0.0 1016561
18:00+10ссв126876 0.0 1015677
21:00+6с228899 0.0 101676
23 сентября, чт
чт2300:00+6св239182 0.0 101597
03:00+7св3491100 0.1 1013129
06:00+6ссв3393100 0.0 101495
09:00+9ссв2371100 0.1 1013271
12:00+10с2262100 0.0 1013581
15:00+10с2354100 0.0 1012775
18:00+10ссз235389 0.0 1013180
21:00+6с347830 0.0 101484
24 сентября, пт
пт2400:00+4с33878 0.0 101567
03:00+4с33882 0.0 101662
06:00+3с339113 0.0 101767
09:00+8ссз33625 0.0 1017534
12:00+12зсз345034 0.0 10161324
15:00+11зсз456177 0.1 10161233
18:00+10зсз357062 0.0 1017716
21:00+10зюз3676100 0.0 1017490